Regional Weather Roundup
Issued by NWS Grand Forks, ND

Home | Current Version | Previous Version | Graphics & Text | Print | Product List | Glossary On
Versions: 1 2 3 4 5 6 7 8 9 10 11 12 13 14 15 16 17 18 19 20 21 22 23 24 25 26 27 28 29 30 31 32 33 34 35 36 37 38 39 40 41 42 43 44 45 46 47 48 49 50
000
ASUS43 KFGF 230810
RWRFGF
PRAIRIE TO PINES  WEATHER ROUNDUP
NATIONAL WEATHER SERVICE EASTERN NORTH DAKOTA/GRAND FORKS ND
200 AM CST THU NOV 23 2017

 **SATELLITE DATA USED TO AUGMENT SKY COVER AT AUTOMATED STATIONS**
 *****  WEATHER ACROSS EASTERN NORTH DAKOTA  *****

CITY           SKY/WX    TMP DP  RH WIND       PRES   REMARKS
GRAND FORKS    CLOUDY    23  21  92 CALM      29.94S
GRAND FRKS AFB CLOUDY    24  21  89 CALM      29.93F
GRAND FRKS NWS   N/A     21 N/A N/A W2          N/A
DEVILS LAKE    CLOUDY    28  25  88 W7        29.92F WCI  21
FARGO          FAIR      20  15  81 W7        29.95F WCI  11
WAHPETON ARPT  NOT AVBL
$$

 ***** WEATHER ACROSS CENTRAL AND WESTERN NORTH DAKOTA  *****

CITY           SKY/WX    TMP DP  RH WIND       PRES   REMARKS
BISMARCK       FAIR      24  21  88 SE3       29.96F
MINOT          FAIR      26  22  84 S7        29.88F WCI  18
JAMESTOWN      CLOUDY    28  24  85 W7        29.94F WCI  21
MINOT AFB      FAIR      21  19  91 S3        29.87F
GARRISON         N/A     26  24  92 SW3       29.91F
WILLISTON      FAIR      23  21  92 CALM      29.87F
DICKINSON      FAIR      38  35  89 SW9       29.88F
HETTINGER      FAIR      31  29  92 CALM      29.96F
$$

 *****  OTHER AIRPORT OBSERVATIONS IN OUR AREA  *****

CITY           SKY/WX    TMP DP  RH WIND       PRES   REMARKS
WALHALLA       FAIR      21  21 100 CALM      29.91F
GRAFTON AIRPOR FAIR      18  18 100 W7        29.96S WCI   8
VALLEY CITY AR CLOUDY    28  28 100 W9        29.96S WCI  20
CANDO          CLOUDY    27  27 100 W5        29.92S WCI  21
CAVALIER APRT  FAIR      14  12  92 CALM      29.92F
GWINNER          N/A     25  19  80 NW9       29.95F WCI  15
ROLLA          CLOUDY    25  25 100 SW12      29.87F WCI  14
 ***** THE ABOVE OBSERVATIONS ARE NON NWS ARE NOT QUALITY
       CONTROLLED AND MAY MIS-REPORT RAIN FOR SNOW...
$$

  *****  WEATHER ACROSS NORTHERN MINNESOTA  *****

CITY           SKY/WX    TMP DP  RH WIND       PRES   REMARKS
FLAG ISLAND    FAIR      19  16  86 SW5       29.87F WCI  13
WARROAD        FAIR      14  10  85 CALM      29.89F
ROSEAU         FAIR      18  12  79 SW5       29.90R WCI  11
HALLOCK        FAIR      16  12  86 W3        29.93R
THF RVR FALLS  FAIR      14  12  92 SW7       29.93S WCI   4
BAUDETTE       FAIR      19  16  88 S5        29.87F WCI  12
WASKISH        FAIR      16  16 100 CALM      29.90F
CROOKSTON      FAIR      18  16  93 CALM      29.95R
STEPHEN NDAWN    N/A     16  14  93 W3          N/A
GREENBUSH NDAW   N/A     16  12  86 SW3         N/A
$$
  *****  WEATHER ACROSS CENTRAL AND WEST MINNESOTA  *****

CITY           SKY/WX    TMP DP  RH WIND       PRES   REMARKS
FOSSTON        FAIR      10   9  92 CALM      29.92F
BEMIDJI        FAIR      17  15  92 CALM      29.90F
PARK RAPIDS    FAIR      13  10  88 CALM      29.90F
ELBOW LAKE     FAIR      19  17  90 W3        29.95R FOG
WADENA         FAIR      18  14  86 CALM      29.91S
DETROIT LAKES  FAIR      21  18  86 CALM      29.91F
MOORHEAD       FAIR      19  14  79 CALM      29.96R
FERGUS FALLS   FAIR      19  16  86 NE3       29.96S
MORRIS MN      FAIR      25  18  74 NW10      29.93R WCI  15
STAPLES        FAIR      16  12  86 CALM      29.92R
$$
  *****  WEATHER ELSEWHERE ACROSS MINNESOTA  *****

CITY           SKY/WX    TMP DP  RH WIND       PRES   REMARKS
DULUTH         CLOUDY    22  19  89 W6        29.90F WCI  14
INTRNTL FALLS  CLOUDY    20  16  84 SW3       29.90S
ELY            MOCLDY    18  16  93 SW5       29.89S WCI  11
CLOQUET        CLOUDY    23  19  86 CALM      29.92R
WHEATON        FAIR      25  19  80 NW7       29.98R WCI  17
BRAINERD       FAIR      14  12  92 CALM      29.93R
HIBBING        CLOUDY    19  17  92 CALM      29.92S
ALEXANDRIA     FAIR      19  16  88 CALM      29.92S
SAINT CLOUD    FAIR      22  16  78 CALM      29.93R
MINNEAPOLIS    FAIR      27  18  69 CALM      29.93R
$$

  *****  WEATHER ACROSS SOUTH DAKOTA  *****

CITY           SKY/WX    TMP DP  RH WIND       PRES   REMARKS
SIOUX FALLS    FAIR      36  28  73 NW10      29.96R
BROOKINGS      FAIR      25  20  81 N3        29.95R
WATERTOWN      FAIR      27  23  85 N8        29.94R WCI  19
HURON          FAIR      25  23  92 NW6       29.99S WCI  18
SISSETON         N/A     28  21  75 NW12      29.95R WCI  18
ABERDEEN       FAIR      24  22  91 N5        29.98F WCI  18
MITCHELL       FAIR      36  30  79 W7        30.01R
PIERRE         FAIR      40  36  86 W5        29.98F
MOBRIDGE       FAIR      28  25  88 CALM      29.94F
RAPID CITY     FAIR      40  34  79 W3        30.04F
$$

  *****  SOME WEATHER IN NEARBY STATES *****

CITY           SKY/WX    TMP DP  RH WIND       PRES   REMARKS
GLASGOW MT     FAIR      34  34 100 SE7       29.83F
GREAT FALLS MT FAIR      54  39  57 S12       29.95F
CHEYENNE WY    FAIR      50  37  61 NW16      30.26F
SCOTTSBLUFF NE FAIR      41  36  82 NW8       30.17F
OMAHA NE       FAIR      31  21  66 SE9       29.99F WCI  23
DES MOINES IA  FAIR      33  18  53 S8        29.99F
DAVENPORT IA   CLOUDY    33  19  56 S14       30.10F WCI  23
CHICAGO IL     CLOUDY    33  18  53 SW8       30.13F
EAU CLAIRE WI  FAIR      25  16  68 NE5       29.96R WCI  19
LA CROSSE WI   FAIR      33  18  53 S13       29.96F WCI  24
$$

  *****  SOME NATIONAL WEATHER *****

CITY           SKY/WX    TMP DP  RH WIND       PRES   REMARKS
LA GUARDIA NY  FAIR      35  21  56 NW20      30.09S WCI  24
RALEIGH NC     MOCLDY    36  27  69 NE5       30.16S
ATLANTA GA     MOCLDY    42  33  70 VRB6      30.07F
NEW ORLEANS LA FAIR      50  37  61 N10       30.11F
OKLAHOMA CITY  FAIR      32  22  66 S6        30.17F
ALBUQUERQUE NM FAIR      42  26  53 E3        30.33F
SALT LAKE CITY MOCLDY    49  41  74 S6        30.33F
LOS ANGELES CA FAIR      77  41  27 VRB6      30.02F
BOISE ID       FAIR      47  46  97 NE5       30.15F FOG
SEATTLE WA     RAIN      59  58  96 SW16      29.85S FOG
$$

*** WEATHER ACROSS MANITOBA...SASKATCHEWAN AND ONTARIO ***
                ***ONTARIO***

CITY           SKY/WX    TMP DP  RH WIND       PRES   REMARKS
GERALDTON      FLURRIES  19  16  86 SW14      29.75F WCI   6
THUNDER BAY    CLOUDY    25  19  80 W8        29.88S WCI  16
SIOUX LOOKOUT  FLURRIES  19  16  86 W7        29.80F WCI  10
TORONTO        MOCLDY    30  21  69 SW9       30.13F WCI  22
BIG TROUT LK   LGT SNOW  12   7  79 NW17G23   29.66  WCI  -5
PICKLE LAKE    NOT AVBL
DRYDEN         CLOUDY    19  18  93 W13       29.81F WCI   7
KENORA         CLOUDY    18  16  93 W6        29.85F WCI   9
$$
                *** MANITOBA***

CITY           SKY/WX    TMP DP  RH WIND       PRES   REMARKS
BRANDON        FLURRIES  18  14  86 W5        29.88F WCI  11
DAUPHIN        CLOUDY    23  18  80 W7        29.88S WCI  15
ISLAND LAKE    FLURRIES   7   3  85 NW10G21   29.80S WCI  -8
PILOT MOUND      N/A     19  18  93 W3          N/A
THE PAS        NOT AVBL
THOMPSON       PTCLDY     1  -6  71 NW6       29.85R WCI -10
WINNIPEG       MOCLDY    19  16  86 SW7       29.89F WCI  10
LYNN LAKE      CLEAR     -6 -11  77 N6        29.85S WCI -18
CHURCHILL      CRYSTALS  -4  -9  77 NW22G29   29.70F WCI -28
GILLAM         FLURRIES   3  -2  78 NW7       29.78R WCI  -9
$$
                ***SASKATCHEWAN***

CITY           SKY/WX    TMP DP  RH WIND       PRES   REMARKS
ESTEVAN        CLOUDY    21  19  93 S7        29.82F WCI  13
KINDERSLEY     PTCLDY    21  19  93 SW8       29.62F WCI  12
LLOYDMINSTER   CLEAR     12  10  92 SE12      29.56F WCI  -2
PRINCE ALBERT  FLURRIES  18  12  79 E7        29.79F WCI   8
REGINA         PTCLDY    18  16  93 SE14      29.76F WCI   4
YORKTON        CLOUDY    21  19  93 S3        29.83F
N. BATTLEFORD  CLEAR     12   9  85 SE12      29.68F WCI  -2
LA RONGE       FLURRIES   9   5  85 NE8       29.84F WCI  -4
SASKATOON      MOCLDY    14  12  92 E5        29.73F WCI   6
SWIFT CURRENT  CLEAR     39  34  81 SW14      29.69F
$$
NOTE: THESE ARE AUTOMATED STATIONS WITH LIMITED QUALITY CONTROL
      "FAIR" INDICATES FEW OR NO CLOUDS BELOW 12,000 FEET WITH NO
      SIGNIFICANT WEATHER AND/OR OBSTRUCTIONS TO VISIBILITY.
      SKY/WX - SKY CONDITION AND SIGNIFICANT WEATHER.
      TMP - AIR TEMPERATURE.    DP   - DEWPOINT TEMPERATURE.
      RH  - RELATIVE HUMIDITY.  PRES - PRESSURE.
      HX  - HEAT INDEX.         WCI  - WIND CHILL INDEX.
$




USA.gov is the U.S. government's official web portal to all federal, state and local government web resources and services.